{"data":{"norad_id":52675,"intl_designator":"2022-053V","name":"STARLINK-3934","alt_names":[],"object_type":"PAYLOAD","status":"ACTIVE","operator":null,"country":"US","launch_date":"2022-05-18","launch_site_code":"AFETR","launch_vehicle":null,"mission":null,"orbit_class":"UNKNOWN","rcs_meters":null,"size_class":null,"mass_kg":null,"dimensions":null,"purposes":["comms"],"wikipedia_slug":null,"has_3d_model":false,"image_url":null,"decayed_at":null,"tle_current":{"epoch":"2026-09-18T05:41:58.026624Z","epoch_age_seconds":261970,"freshness":"STALE","line1":"1 52675U 22053V   26261.23747716 -.00000812  00000+0 -14419-4 0  9996","line2":"2 52675  53.1592 350.4593 0000942  68.1033 292.0069 15.31698062240361","mean_motion":15.31698062,"eccentricity":9.42e-5,"inclination_deg":53.1592,"raan_deg":350.4593,"arg_perigee_deg":68.1033,"mean_anomaly_deg":292.0069,"bstar":-1.4419e-5,"rev_number":24036,"period_min":94.013306912443,"perigee_km":470.10060755174,"apogee_km":471.39093706604,"semimajor_km":6848.8827723089,"source":"CELESTRAK","updated_at":"2026-09-20T09:00:40.104000Z"}}}